[[{"header":{"parameterUnit":"m.s-1","parameterCategory":1,"la1":30.2991,"la2":30.254,"lo1":-89.0895,"lo2":-89.0444,"dy":0.0017,"dx":0.0017,"nx":28,"ny":28,"refTime":"2025-07-27T09:00:00:Z","depth":0,"parameterNumber":2,"parameterNumberName":"U-component_of_WINDS"},"data":[0,0,0,0,0,0,0,0,0,0,0,0,0,0,0,0,0,0,0,0,0,0,0,0,0,0,0,0,0,0,0,0,0,0,0,0,0,0,0,0,0,0,0,0,0,0,0,0,0,0,0,0,0,0,0,0,0,0,0.8991,0.8992,0,0.9148,0.9149,0.9151,0.9217,0.9216,0.9216,0.9216,0.9379,0.9383,0.9388,0,0,0,0,0,0,0,0,0,0,0,0,0,0.8748,0.8752,0.899,0.8992,0.8994,0.9147,0.915,0.9152,0.9217,0.9216,0.9216,0.9215,0.9377,0.9383,0.9388,0,0,0,0,0,0,0,0,0,0,0,0,0,0.8874,0.8754,0.899,0.9045,0.9052,0.9147,0.915,0.9152,0.9217,0.9216,0.9216,0.9215,0.9375,0.9382,0.9389,0.9442,0,0,0.941,0.9413,0,0,0,0,0,0,0,0,0.8867,0.8883,0.9035,0.9041,0.9049,0.9162,0.9124,0.9249,0.9217,0.9154,0.9216,0.9215,0.9307,0.932,0.935,0.945,0.9457,0.9411,0.9415,0.9418,0.942,0,0,0,0,0,0,0,0.8858,0.8877,0.9053,0.9037,0.9046,0.9063,0.908,0.9148,0.9232,0.9159,0.9165,0.9182,0.9311,0.9343,0.9355,0.9459,0.9411,0.9417,0.9421,0.9424,0.961,0.961,0,0,0,0,0,0,0.884,0.8869,0.9048,0.9057,0.8955,0.9067,0.9087,0.9126,0.9231,0.9246,0.9182,0.9185,0.9332,0.9346,0.9361,0.943,0.9418,0.9425,0.9429,0.9609,0.961,0.9611,0,0,0,0,0,0,0.8835,0.8855,0.9041,0.8965,0.899,0.9072,0.9116,0.913,0.9162,0.9248,0.9264,0.92,0.9332,0.9351,0.9421,0.9436,0.9428,0.9434,0.9608,0.9609,0.961,0.9567,0,0,0,0,0,0,0.8827,0.8853,0.8874,0.8965,0.8993,0.9098,0.9117,0.9133,0.9174,0.9178,0.9269,0.9284,0.9333,0.941,0.9428,0.9446,0.944,0.9607,0.9609,0.961,0.9568,0.9567,0.9566,0,0,0,0,0,0.8818,0.8856,0.8874,0.8896,0.9021,0.9099,0.9116,0.9171,0.9175,0.9196,0.9252,0.9281,0.9431,0.9417,0.9437,0.9457,0.9606,0.9608,0.961,0.9568,0.9567,0.9566,0,0,0,0,0,0,0.8765,0.8869,0.889,0.8958,0.9019,0.911,0.9139,0.9168,0.923,0.9232,0.9298,0.9318,0.9383,0.9427,0.9409,0.9514,0.9521,0.9527,0.9483,0.9482,0.9481,0.947,0.9446,0,0,0,0,0,0.8761,0.8816,0.8904,0.8955,0.8984,0.9056,0.9092,0.913,0.9196,0.9222,0.9283,0.9347,0.9408,0.9448,0.9509,0.9574,0.9595,0.9598,0.9597,0.9596,0.96,0.9638,0.964,0.9616,0.9616,0.9616,0,0,0.8754,0.8817,0.8848,0.8946,0.8998,0.9053,0.9078,0.9135,0.9177,0.9232,0.9301,0.9348,0.9423,0.9491,0.9524,0.953,0.9612,0.9598,0.9596,0.9602,0.964,0.9642,0.9644,0.9617,0.9617,0.9617,0,0,0.8769,0.8822,0.8871,0.8922,0.8999,0.9047,0.9058,0.9145,0.9177,0.9248,0.929,0.9341,0.9446,0.9498,0.9538,0.9572,0.9601,0.959,0.9586,0.9622,0.9623,0.9625,0.9638,0.9641,0.9594,0.9594,0.9594,0,0.875,0.8835,0.8892,0.8947,0.8989,0.904,0.909,0.9137,0.9231,0.9259,0.9264,0.9396,0.9451,0.9531,0.9539,0.957,0.9586,0.958,0.9618,0.9621,0.9624,0.9636,0.964,0.9592,0.9592,0.9593,0.9593,0,0.8808,0.8866,0.8896,0.8984,0.903,0.9082,0.9147,0.9187,0.922,0.9266,0.9338,0.9405,0.9481,0.9503,0.9536,0.9588,0.9589,0.9605,0.9614,0.9623,0.9636,0.9641,0.959,0.959,0.9591,0.9591,0,0,0.8794,0.8913,0.8923,0.8964,0.9053,0.91,0.9154,0.9227,0.926,0.9323,0.937,0.9457,0.9473,0.9518,0.9558,0.9589,0.9611,0.9602,0.9605,0.9601,0.9673,0.966,0.9664,0.9631,0.9632,0.9633,0.9666,0,0.8821,0.8921,0.8974,0.9051,0.9105,0.9154,0.9201,0.9261,0.9306,0.9359,0.941,0.947,0.9486,0.9514,0.9547,0.9601,0.9627,0.96,0.9676,0.9678,0.9656,0.9671,0.9658,0.9686,0.9672,0.9673,0.9673,0,0.8867,0.8928,0.901,0.9093,0.9117,0.9159,0.923,0.928,0.9349,0.938,0.943,0.9469,0.9529,0.9532,0.9615,0.9596,0.963,0.9662,0.9664,0.9674,0.9677,0.9681,0.9697,0.9701,0.9682,0.9681,0.968,0,0.8848,0.8952,0.9014,0.9048,0.9145,0.9174,0.9216,0.9284,0.9325,0.9387,0.9414,0.9483,0.9521,0.9573,0.9629,0.9627,0.9707,0.9715,0.9735,0.9733,0.975,0.9748,0.9771,0.9771,0.9771,0.9771,0.9771,0,0.8873,0.8922,0.9007,0.9046,0.9102,0.9162,0.9216,0.9262,0.9322,0.937,0.9417,0.9461,0.9533,0.9587,0.9631,0.9693,0.971,0.9737,0.9748,0.9733,0.9729,0.9757,0.9756,0.9772,0.9772,0.9772,0.9772,0,0.8863,0.8922,0.8994,0.908,0.9103,0.914,0.9214,0.9254,0.93,0.9361,0.9379,0.9453,0.9519,0.958,0.9667,0.9697,0.976,0.9775,0.9736,0.9743,0.9758,0.9756,0.98,0.9809,0.9802,0.9802,0.9802,0,0.8875,0.8913,0.9003,0.9039,0.908,0.9137,0.9178,0.9239,0.928,0.9361,0.9391,0.9459,0.9517,0.962,0.9682,0.9749,0.9766,0.9776,0.9776,0.9759,0.9766,0.9763,0.9767,0.9775,0.9775,0.9775,0.9775,0,0.889,0.8918,0.8975,0.9043,0.9091,0.9147,0.9205,0.9232,0.9304,0.9348,0.9415,0.946,0.9548,0.9616,0.969,0.9734,0.9767,0.9774,0.9782,0.9767,0.9744,0.9757,0.9734,0.9773,0.9773,0.9774,0.9774,0.9774,0.8892,0.8928,0.8997,0.906,0.9109,0.9162,0.9204,0.9255,0.9312,0.9389,0.9421,0.9489,0.9557,0.9659,0.9703,0.9757,0.9765,0.9776,0.9779,0.9781,0.9778,0.9734,0.9771,0.9771,0.9771,0.9771,0.9772,0,0.891,0.8956,0.9013,0.9093,0.9142,0.9167,0.9232,0.9272,0.9331,0.9391,0.9447,0.9524,0.959,0.9656,0.9726,0.9756,0.9773,0.9772,0.9771,0.9781,0.9768,0.9754,0.9758,0.9758,0.9758,0.9758,0.9758,0.9758,0.8925,0.8987,0.9023,0.911,0.9157,0.9223,0.9258,0.9308,0.9356,0.9439,0.9494,0.9537,0.96,0.9674,0.9735,0.9753,0.9777,0.9772,0.9794,0.9781,0.9782,0.9782,0.977,0.9777,0.9777,0.9803,0.9803,0.9803]},{"header":{"parameterUnit":"m.s-1","parameterCategory":1,"la1":30.2991,"la2":30.254,"lo1":-89.0895,"lo2":-89.0444,"dy":0.0017,"dx":0.0017,"nx":28,"ny":28,"refTime":"2025-07-27T09:00:00:Z","depth":0,"parameterNumber":3,"parameterNumberName":"V-component_of_WINDS"},"data":[0,0,0,0,0,0,0,0,0,0,0,0,0,0,0,0,0,0,0,0,0,0,0,0,0,0,0,0,0,0,0,0,0,0,0,0,0,0,0,0,0,0,0,0,0,0,0,0,0,0,0,0,0,0,0,0,0,0,3.0359,3.0358,0,3.0307,3.0306,3.0306,3.0312,3.0312,3.0313,3.0314,3.0255,3.0252,3.025,0,0,0,0,0,0,0,0,0,0,0,0,0,3.0455,3.0454,3.0359,3.0358,3.0357,3.0307,3.0306,3.0306,3.0311,3.0312,3.0313,3.0314,3.0255,3.0253,3.025,0,0,0,0,0,0,0,0,0,0,0,0,0,3.0409,3.0453,3.0359,3.0354,3.0353,3.0307,3.0306,3.0305,3.0311,3.0312,3.0314,3.0315,3.0256,3.0253,3.0249,3.0202,0,0,3.0238,3.0237,0,0,0,0,0,0,0,0,3.0412,3.0406,3.0356,3.0355,3.0354,3.0317,3.0319,3.0271,3.0311,3.0327,3.0314,3.0316,3.0274,3.0269,3.0256,3.0199,3.0197,3.0238,3.0236,3.0234,3.0233,0,0,0,0,0,0,0,3.0415,3.0408,3.0338,3.0355,3.0354,3.0353,3.0348,3.031,3.0294,3.0326,3.0326,3.032,3.0273,3.026,3.0255,3.0196,3.0238,3.0235,3.0233,3.0231,3.0095,3.0093,0,0,0,0,0,0,3.042,3.0411,3.034,3.0336,3.0387,3.035,3.0344,3.0327,3.0294,3.0291,3.0319,3.0321,3.0265,3.0259,3.0253,3.0194,3.0234,3.0231,3.0229,3.0096,3.0095,3.0093,0,0,0,0,0,0,3.0422,3.0414,3.0342,3.0374,3.0364,3.0347,3.0328,3.0326,3.0312,3.0289,3.0286,3.0308,3.0266,3.0258,3.0215,3.0192,3.023,3.0226,3.0098,3.0096,3.0094,3.0076,0,0,0,0,0,0,3.0425,3.0415,3.0398,3.0373,3.0363,3.0306,3.0327,3.0324,3.0307,3.0308,3.0278,3.0275,3.0266,3.022,3.0211,3.0188,3.0224,3.01,3.0097,3.0094,3.0079,3.0074,3.0069,0,0,0,0,0,3.0429,3.0394,3.0397,3.0389,3.0342,3.0305,3.0299,3.0292,3.0305,3.0287,3.0272,3.0276,3.0196,3.0215,3.0206,3.0181,3.0101,3.0098,3.0095,3.0081,3.0075,3.007,0,0,0,0,0,0,3.0415,3.0391,3.0394,3.0351,3.0331,3.0306,3.0284,3.0286,3.0259,3.0261,3.0252,3.0245,3.0201,3.0187,3.0208,3.0132,3.015,3.0145,3.0143,3.0137,3.0132,3.0136,3.0221,0,0,0,0,0,3.0408,3.0382,3.0361,3.0325,3.0315,3.0301,3.0285,3.0281,3.0258,3.0249,3.0231,3.0207,3.0176,3.0156,3.0127,3.0077,3.0069,3.0055,3.005,3.0047,3.0041,3.0012,3.0004,3.0082,3.0082,3.0082,0,0,3.0391,3.0375,3.0359,3.0322,3.0306,3.0277,3.0294,3.0263,3.024,3.0243,3.0202,3.0188,3.0159,3.0113,3.0091,3.0099,3.0018,3.0042,3.0039,3.0036,3.0007,3.0,2.9994,3.008,3.008,3.008,0,0,3.0346,3.0332,3.03,3.0283,3.0258,3.0249,3.0241,3.0217,3.0208,3.0166,3.0168,3.014,3.0088,3.0067,3.005,2.9996,2.9997,2.9987,2.9961,2.9933,2.9927,2.9921,2.99,2.9892,2.9982,2.9982,2.9982,0,3.0328,3.0287,3.0282,3.0251,3.0234,3.0238,3.0203,3.0186,3.0152,3.0139,3.015,3.0084,3.0065,3.0013,2.9999,2.9986,2.9975,2.9989,2.9928,2.9923,2.9917,2.9897,2.9889,2.9981,2.9981,2.9981,2.9981,0,3.0264,3.0235,3.0212,3.0181,3.0161,3.0129,3.0117,3.0097,3.0095,3.0084,3.004,3.0018,2.9984,2.9971,2.9968,2.9917,2.9923,2.9931,2.9949,2.9909,2.9889,2.9882,2.9979,2.9979,2.998,2.998,0,0,3.0209,3.0176,3.0167,3.0153,3.0125,3.0102,3.0068,3.0036,3.0018,2.9994,2.9964,2.992,2.9927,2.9907,2.9902,2.9877,2.9833,2.9888,2.9887,2.9876,2.9772,2.9765,2.9757,2.9834,2.9833,2.9831,2.9774,0,3.016,3.0103,3.0097,3.0045,3.0017,3.0019,2.999,2.9968,2.9957,2.9929,2.9915,2.9884,2.9896,2.9884,2.986,2.9844,2.9811,2.9848,2.9803,2.9801,2.9809,2.9747,2.9739,2.9686,2.9767,2.9765,2.9764,0,3.0095,3.0071,3.0016,2.9991,2.9979,2.9953,2.9922,2.9897,2.9872,2.9865,2.9843,2.984,2.9803,2.9823,2.977,2.9794,2.9776,2.9765,2.9762,2.9756,2.978,2.9737,2.967,2.9661,2.9753,2.9754,2.9754,0,3.0057,3.0011,2.9972,2.996,2.993,2.9911,2.9898,2.9874,2.9855,2.9827,2.9814,2.9782,2.9764,2.9738,2.9726,2.9742,2.9672,2.9692,2.9663,2.9663,2.9647,2.9648,2.9573,2.9638,2.9638,2.9638,2.9638,0,3.0002,2.9968,2.9955,2.9931,2.9892,2.9885,2.9846,2.9833,2.9811,2.9782,2.9782,2.9755,2.9742,2.9711,2.9701,2.9657,2.9649,2.9641,2.9638,2.964,2.9641,2.9626,2.9629,2.9636,2.9636,2.9637,2.9637,0,2.9954,2.9944,2.9901,2.9877,2.987,2.9842,2.982,2.9795,2.9785,2.9748,2.9739,2.972,2.9684,2.967,2.9626,2.9619,2.9568,2.9569,2.9577,2.9576,2.9547,2.9549,2.9459,2.9446,2.9521,2.952,2.952,0,2.9919,2.9893,2.9866,2.9848,2.9834,2.9805,2.9785,2.9777,2.9756,2.9725,2.9703,2.9668,2.9639,2.9581,2.9562,2.9527,2.9526,2.9497,2.9521,2.9523,2.9523,2.9525,2.9521,2.9492,2.9492,2.9491,2.949,0,2.9856,2.9853,2.9826,2.9797,2.9774,2.975,2.9727,2.9711,2.9699,2.9675,2.964,2.9618,2.9573,2.9537,2.9501,2.9484,2.9484,2.9483,2.9474,2.9475,2.948,2.9475,2.9563,2.9485,2.9486,2.9486,2.9486,2.9487,2.9812,2.9788,2.9766,2.9735,2.9717,2.9695,2.9671,2.9657,2.9628,2.9592,2.9588,2.9549,2.9522,2.9475,2.9456,2.9424,2.9431,2.9419,2.9415,2.9412,2.9409,2.9487,2.9417,2.9417,2.9417,2.9418,2.9418,0,2.9748,2.9734,2.9706,2.9674,2.965,2.9655,2.9628,2.9607,2.9573,2.9549,2.9521,2.9479,2.9444,2.9422,2.9386,2.9364,2.9363,2.9354,2.9355,2.935,2.9405,2.9416,2.9356,2.9356,2.9356,2.9356,2.9356,2.9356,2.9712,2.9672,2.9665,2.9615,2.96,2.9564,2.9548,2.9527,2.9508,2.9461,2.9433,2.942,2.9395,2.9357,2.9324,2.9319,2.9304,2.9295,2.9289,2.9341,2.9347,2.9353,2.9363,2.9292,2.9292,2.9237,2.9237,2.9236]}]]